When you browse on this site, cookies collect data to enhance your experience and personalize the content and advertising you see.
Visit our Privacy Policy to learn more. By continuing to use the site, you agree to this use of cookies and data.
  • In Hungary
  • List of Countries
  • For 7 days
  • Water Temperature
  • Satellite Maps
  • Weather Map
  • News
  • Weather Widgets
  • user-avatar
    Login

    Hourly Weather Ceuta

    Today, 15 December, Saturday

    Time Temperature Precipitation Wind Pressure Humidity
    00:00 +11°C° 0 mm 4 mps 770 mmHg 75%
    01:00 +11°C° 0 mm 4 mps 770 mmHg 76%
    02:00 +10°C° 0 mm 4 mps 770 mmHg 77%
    03:00 +10°C° 0 mm 4 mps 770 mmHg 77%
    04:00 +10°C° 0 mm 4 mps 770 mmHg 77%
    05:00 +10°C° 0 mm 4 mps 770 mmHg 78%
    06:00 +10°C° 0 mm 4 mps 770 mmHg 78%
    07:00 +11°C° 0 mm 4 mps 770 mmHg 76%
    08:00 +12°C° 0 mm 4 mps 770 mmHg 73%
    09:00 +13°C° 0 mm 3 mps 770 mmHg 71%
    10:00 +14°C° 0 mm 3 mps 770 mmHg 66%
    11:00 +17°C° 0 mm 3 mps 770 mmHg 62%
    12:00 +19°C° 0 mm 3 mps 770 mmHg 57%
    13:00 +19°C° 0 mm 3 mps 770 mmHg 57%
    14:00 +19°C° 0 mm 3 mps 769 mmHg 58%
    15:00 +20°C° 0 mm 3 mps 769 mmHg 58%
    16:00 +18°C° 0 mm 3 mps 769 mmHg 65%
    17:00 +16°C° 0 mm 3 mps 769 mmHg 72%
    18:00 +14°C° 0 mm 3 mps 768 mmHg 78%
    19:00 +13°C° 0 mm 3 mps 769 mmHg 78%
    20:00 +13°C° 0 mm 3 mps 769 mmHg 78%
    21:00 +13°C° 0 mm 3 mps 769 mmHg 77%
    22:00 +13°C° 0 mm 3 mps 769 mmHg 76%
    23:00 +13°C° 0 mm 3 mps 768 mmHg 75%

    Tomorrow, 16 December, Sunday

    Time Temperature Precipitation Wind Pressure Humidity
    00:00 +13°C° 0 mm 3 mps 768 mmHg 74%
    01:00 +13°C° 0 mm 3 mps 768 mmHg 74%
    02:00 +13°C° 0 mm 3 mps 768 mmHg 73%
    03:00 +13°C° 0 mm 4 mps 768 mmHg 73%
    04:00 +13°C° 0 mm 4 mps 768 mmHg 73%
    05:00 +13°C° 0 mm 4 mps 767 mmHg 73%
    06:00 +12°C° 0 mm 4 mps 767 mmHg 73%
    07:00 +13°C° 0 mm 4 mps 768 mmHg 72%
    08:00 +14°C° 0 mm 4 mps 768 mmHg 70%
    09:00 +15°C° 0 mm 4 mps 768 mmHg 68%
    10:00 +16°C° 0 mm 5 mps 768 mmHg 65%
    11:00 +19°C° 0 mm 5 mps 768 mmHg 61%
    12:00 +20°C° 0 mm 5 mps 768 mmHg 58%
    13:00 +20°C° 0 mm 5 mps 768 mmHg 60%
    14:00 +20°C° 0 mm 5 mps 768 mmHg 63%
    15:00 +20°C° 0 mm 5 mps 768 mmHg 65%
    16:00 +19°C° 0 mm 5 mps 768 mmHg 71%
    17:00 +16°C° 0 mm 5 mps 768 mmHg 78%
    18:00 +15°C° 0 mm 4 mps 769 mmHg 84%
    19:00 +15°C° 0 mm 4 mps 769 mmHg 84%
    20:00 +15°C° 0 mm 4 mps 769 mmHg 84%
    21:00 +15°C° 0 mm 4 mps 770 mmHg 83%
    22:00 +14°C° 0 mm 4 mps 770 mmHg 83%
    23:00 +14°C° 0 mm 4 mps 770 mmHg 82%

    Day after tomorrow, 17 December, Monday

    Time Temperature Precipitation Wind Pressure Humidity
    00:00 +14°C° 0 mm 4 mps 770 mmHg 81%
    01:00 +14°C° 0 mm 3 mps 769 mmHg 82%
    02:00 +13°C° 0 mm 3 mps 769 mmHg 83%
    03:00 +13°C° 0 mm 3 mps 769 mmHg 84%
    04:00 +13°C° 0 mm 3 mps 769 mmHg 84%
    05:00 +13°C° 0 mm 3 mps 769 mmHg 85%
    06:00 +13°C° 0 mm 2 mps 769 mmHg 85%
    07:00 +14°C° 0 mm 2 mps 769 mmHg 82%
    08:00 +15°C° 0 mm 2 mps 769 mmHg 79%
    09:00 +16°C° 0 mm 1 mps 770 mmHg 75%
    10:00 +18°C° 0 mm 1 mps 769 mmHg 68%
    11:00 +20°C° 0 mm 1 mps 769 mmHg 61%
    12:00 +20°C° 0 mm 2 mps 769 mmHg 54%
    13:00 +20°C° 0 mm 2 mps 769 mmHg 55%
    14:00 +20°C° 0 mm 3 mps 768 mmHg 56%
    15:00 +20°C° 0 mm 3 mps 768 mmHg 57%
    16:00 +18°C° 0 mm 3 mps 768 mmHg 66%
    17:00 +17°C° 0 mm 3 mps 768 mmHg 75%
    18:00 +14°C° 0 mm 3 mps 768 mmHg 85%
    19:00 +14°C° 0 mm 3 mps 768 mmHg 86%
    20:00 +13°C° 0 mm 4 mps 768 mmHg 88%
    21:00 +13°C° 0 mm 4 mps 768 mmHg 90%
    22:00 +13°C° 0 mm 4 mps 768 mmHg 89%
    23:00 +13°C° 0 mm 4 mps 768 mmHg 89%

    18 December, Tuesday

    Time Temperature Precipitation Wind Pressure Humidity
    00:00 +13°C° 0 mm 4 mps 768 mmHg 89%
    01:00 +13°C° 0 mm 4 mps 767 mmHg 88%
    02:00 +13°C° 0 mm 4 mps 767 mmHg 88%
    03:00 +12°C° 0 mm 4 mps 767 mmHg 88%
    04:00 +12°C° 0 mm 4 mps 767 mmHg 88%
    05:00 +12°C° 0 mm 4 mps 766 mmHg 88%
    06:00 +12°C° 0 mm 4 mps 766 mmHg 88%
    07:00 +13°C° 0 mm 4 mps 767 mmHg 85%
    08:00 +14°C° 0 mm 4 mps 767 mmHg 82%
    09:00 +15°C° 0 mm 4 mps 767 mmHg 79%
    10:00 +17°C° 0 mm 4 mps 767 mmHg 74%
    11:00 +19°C° 0 mm 4 mps 767 mmHg 68%
    12:00 +20°C° 0 mm 4 mps 767 mmHg 62%
    13:00 +20°C° 0 mm 3 mps 766 mmHg 62%
    14:00 +20°C° 0 mm 3 mps 766 mmHg 62%
    15:00 +20°C° 0 mm 3 mps 765 mmHg 63%
    16:00 +19°C° 0 mm 2 mps 765 mmHg 70%
    17:00 +17°C° 0 mm 2 mps 766 mmHg 78%
    18:00 +15°C° 0 mm 2 mps 766 mmHg 85%
    19:00 +15°C° 0 mm 1 mps 766 mmHg 84%
    20:00 +15°C° 0 mm 1 mps 766 mmHg 83%
    21:00 +15°C° 0 mm 1 mps 767 mmHg 82%
    22:00 +15°C° 0 mm 2 mps 767 mmHg 80%
    23:00 +15°C° 0 mm 2 mps 767 mmHg 79%

    19 December, Wednesday

    Time Temperature Precipitation Wind Pressure Humidity
    00:00 +15°C° 0 mm 2 mps 766 mmHg 77%
    01:00 +14°C° 0.1 mm 3 mps 766 mmHg 78%
    02:00 +16°C° 0.1 mm 3 mps 766 mmHg 79%
    03:00 +15°C° 0.1 mm 4 mps 766 mmHg 80%
    04:00 +15°C° 0.1 mm 4 mps 766 mmHg 81%
    05:00 +15°C° 0.1 mm 4 mps 767 mmHg 82%
    06:00 +15°C° 0.1 mm 4 mps 767 mmHg 83%
    07:00 +15°C° 0.1 mm 4 mps 767 mmHg 83%
    08:00 +15°C° 0.1 mm 4 mps 768 mmHg 84%
    09:00 +15°C° 0.1 mm 4 mps 768 mmHg 84%
    10:00 +17°C° 0 mm 4 mps 768 mmHg 79%
    11:00 +17°C° 0 mm 4 mps 768 mmHg 74%
    12:00 +18°C° 0 mm 4 mps 768 mmHg 69%
    13:00 +18°C° 0 mm 4 mps 768 mmHg 66%
    14:00 +18°C° 0 mm 4 mps 768 mmHg 64%
    15:00 +18°C° 0 mm 4 mps 767 mmHg 61%
    16:00 +17°C° 0 mm 4 mps 767 mmHg 65%
    17:00 +14°C° 0 mm 4 mps 768 mmHg 68%
    18:00 +13°C° 0 mm 4 mps 768 mmHg 72%
    19:00 +12°C° 0 mm 4 mps 768 mmHg 71%
    20:00 +12°C° 0 mm 4 mps 769 mmHg 70%
    21:00 +11°C° 0 mm 4 mps 769 mmHg 70%
    22:00 +11°C° 0 mm 4 mps 769 mmHg 69%
    23:00 +11°C° 0 mm 3 mps 769 mmHg 69%

    20 December, Thursday

    Time Temperature Precipitation Wind Pressure Humidity
    00:00 +11°C° 0 mm 3 mps 769 mmHg 68%
    01:00 +11°C° 0 mm 3 mps 769 mmHg 68%
    02:00 +11°C° 0 mm 3 mps 769 mmHg 68%
    03:00 +10°C° 0 mm 2 mps 769 mmHg 68%
    04:00 +10°C° 0 mm 2 mps 769 mmHg 68%
    05:00 +10°C° 0 mm 2 mps 769 mmHg 68%
    06:00 +10°C° 0 mm 2 mps 769 mmHg 68%
    07:00 +12°C° 0 mm 1 mps 769 mmHg 67%
    08:00 +13°C° 0 mm 1 mps 770 mmHg 65%
    09:00 +14°C° 0 mm 1 mps 770 mmHg 63%
    10:00 +15°C° 0 mm 1 mps 770 mmHg 57%
    11:00 +17°C° 0 mm 2 mps 770 mmHg 52%
    12:00 +18°C° 0 mm 2 mps 770 mmHg 47%
    13:00 +18°C° 0 mm 2 mps 770 mmHg 49%
    14:00 +18°C° 0 mm 2 mps 769 mmHg 51%
    15:00 +18°C° 0 mm 2 mps 769 mmHg 52%
    16:00 +17°C° 0 mm 2 mps 769 mmHg 61%
    17:00 +15°C° 0 mm 2 mps 770 mmHg 69%
    18:00 +14°C° 0 mm 2 mps 770 mmHg 78%
    19:00 +13°C° 0 mm 2 mps 770 mmHg 80%
    20:00 +13°C° 0 mm 2 mps 770 mmHg 83%
    21:00 +13°C° 0 mm 2 mps 771 mmHg 85%
    22:00 +12°C° 0 mm 3 mps 771 mmHg 86%
    23:00 +12°C° 0 mm 3 mps 771 mmHg 87%
    Show more